Location: Prague
(50.0830°N, 14.4670°E)
Time: 04:40:22
(UTC+01:00)

YUBILEINY - Visible Passes

Search period start: 29 November 2021 00:00
Search period end: 09 December 2021 00:00
Orbit: 1478 x 1509 km, 82.5° (Epoch: 28 November)

Date Brightness Start Highest point End Pass type
(mag) Time Alt. Az. Time Alt. Az. Time Alt. Az.
29 Nov ? 00:58:41 10° N 01:01:43 17° NNE 01:01:43 17° NNE visible
29 Nov ? 02:54:43 10° N 03:11:19 15° SSE 03:12:24 10° SSE visible
29 Nov ? 04:52:17 10° NNW 05:07:21 - SW 04:53:23 14° NNW visible
29 Nov ? 17:59:19 10° SW 18:07:04 34° WNW 18:14:55 10° N visible
30 Nov ? 00:10:19 10° NNE 00:11:50 12° NNE 00:11:50 12° NNE visible
30 Nov ? 02:05:14 10° N 02:23:38 - SE 02:07:41 20° N visible
30 Nov ? 04:02:11 10° NNW 04:19:39 - SSW 04:03:32 16° NNW visible
30 Nov ? 17:08:24 10° SSW 17:16:54 55° WNW 17:25:31 10° N visible
30 Nov ? 19:11:22 10° W 19:16:12 16° NW 19:21:05 10° N visible
01 Dec ? 01:15:56 10° N 01:17:57 16° NNE 01:17:57 16° NNE visible
01 Dec ? 03:12:22 10° NNW 03:31:46 - S 03:13:49 16° NNW visible
01 Dec ? 18:18:29 10° WSW 18:25:20 25° NW 18:32:15 10° N visible
02 Dec ? 00:26:57 10° N 00:28:20 13° NNE 00:28:20 13° NNE visible
02 Dec ? 02:22:46 10° N 02:24:12 16° N 02:24:12 16° N visible
02 Dec ? 17:26:51 10° SW 17:34:53 39° WNW 17:43:02 10° N visible
02 Dec ? 19:32:48 10° NW 19:35:00 11° NW 19:37:14 10° NNW visible
03 Dec ? 01:33:20 10° N 01:34:38 15° N 01:34:38 15° N visible
03 Dec ? 03:30:07 10° NNW 03:30:31 12° NNW 03:30:31 12° NNW visible
03 Dec ? 16:36:11 10° SSW 16:44:50 63° WNW 16:53:35 10° N visible
03 Dec ? 18:38:15 10° W 18:43:49 18° NW 18:49:25 10° N visible
04 Dec ? 00:44:05 10° N 00:45:08 13° N 00:45:08 13° N visible
04 Dec ? 02:40:23 10° N 02:41:01 13° N 02:41:01 13° N visible
04 Dec ? 17:45:47 10° WSW 17:53:04 28° WNW 18:00:26 10° N visible
04 Dec ? 23:55:18 10° N 23:55:40 11° NNE 23:55:40 11° NNE visible
05 Dec ? 01:50:49 10° N 01:51:33 13° N 01:51:33 13° N visible
05 Dec ? 16:54:27 10° SW 17:02:44 45° WNW 17:11:08 10° N visible
05 Dec ? 18:58:56 10° WNW 19:02:31 13° NW 19:06:07 10° NNW visible
06 Dec ? 01:01:26 10° N 01:02:07 12° N 01:02:07 12° N visible
06 Dec ? 18:05:17 10° W 18:11:27 21° NW 18:17:42 10° N visible
07 Dec ? 00:12:17 10° N 00:12:43 11° N 00:12:43 11° N visible
07 Dec ? 02:08:24 10° N 02:08:37 11° N 02:08:37 11° N visible
07 Dec ? 17:13:11 10° WSW 17:20:50 33° WNW 17:28:35 10° N visible
08 Dec ? 01:18:53 10° N 01:19:14 11° N 01:19:14 11° N visible
08 Dec ? 16:22:09 10° SW 16:30:37 52° WNW 16:39:13 10° N visible
08 Dec ? 18:25:30 10° WNW 18:30:04 15° NW 18:34:39 10° NNW visible
